Regional Weather Roundup
Issued by NWS Grand Forks, ND

Home | Current Version | Previous Version | Graphics & Text | Print | Product List | Glossary On
Versions: 1 2 3 4 5 6 7 8 9 10 11 12 13 14 15 16 17 18 19 20 21 22 23 24 25 26 27 28 29 30 31 32 33 34 35 36 37 38 39 40 41 42 43 44 45 46 47 48 49 50
943
ASUS43 KFGF 101331
RWRFGF
PRAIRIE TO PINES  WEATHER ROUNDUP
NATIONAL WEATHER SERVICE EASTERN NORTH DAKOTA/GRAND FORKS ND
700 AM CST WED FEB 10 2016

 **SATELLITE DATA USED TO AUGMENT SKY COVER AT AUTOMATED STATIONS**
 *****  WEATHER ACROSS EASTERN NORTH DAKOTA  *****

CITY           SKY/WX    TMP DP  RH WIND       PRES   REMARKS
GRAND FORKS    LGT SNOW   5  -2  72 SE9       30.12F WCI  -9
GRAND FRKS AFB LGT SNOW   3  -2  78 E7        30.11S WCI  -9
DEVILS LAKE    LGT SNOW   3   0  85 SE14      30.00F FOG     WCI -15
FARGO          LGT SNOW   7   1  76 E7        30.10S WCI  -5
WAHPETON ARPT  CLOUDY     9   3  78 SE7       30.10R WCI  -3
$$

 ***** WEATHER ACROSS CENTRAL AND WESTERN NORTH DAKOTA  *****

CITY           SKY/WX    TMP DP  RH WIND       PRES   REMARKS
BISMARCK       PTCLDY    23  17  78 SE10      29.86F WCI  12
MINOT          CLOUDY    18  10  71 E12       29.88R WCI   5
JAMESTOWN      CLOUDY     6   2  83 E15       29.97F WCI -12
MINOT AFB      CLOUDY    14  12  92 E13       29.89R WCI   0
GARRISON         N/A     20  18  92 E8        29.84R WCI  10
WILLISTON      CLEAR     24  22  91 S3        29.84R
DICKINSON      CLEAR     30  25  81 W12       29.78F WCI  20
HETTINGER      CLEAR     28  23  81 W8        29.82F WCI  20
$$

 *****  OTHER AIRPORT OBSERVATIONS IN OUR AREA  *****

CITY           SKY/WX    TMP DP  RH WIND       PRES   REMARKS
WALHALLA         N/A      1   0  92 SE7       30.12S WCI -11
GRAFTON AIRPOR CLOUDY     3  -2  78 SE8       30.15S WCI -10
VALLEY CITY AR FLURRIES   5   1  85 E8        30.03F WCI  -8
CANDO          CLOUDY     5   1  85 SE16      30.02S WCI -14
CAVALIER APRT  LGT SNOW   3   0  85 SE7       30.13F WCI  -9
GWINNER        CLOUDY    10   7  85 E13       30.03S WCI  -5
SHEYENNE NWR     N/A      6   1  82 E7        29.95S WCI  -6
ROLLA          CLOUDY     3   0  85 SE10      29.98R WCI -12
 ***** THE ABOVE OBSERVATIONS ARE NON NWS ARE NOT QUALITY
       CONTROLLED AND MAY MIS-REPORT RAIN FOR SNOW...
$$

  *****  WEATHER ACROSS NORTHERN MINNESOTA  *****

CITY           SKY/WX    TMP DP  RH WIND       PRES   REMARKS
FLAG ISLAND    PTCLDY   -17 -22  76 CALM      30.16R
WARROAD        PTCLDY   -17 -22  76 CALM      30.15S
ROSEAU         CLOUDY   -11 -17  77 CALM      30.15S
HALLOCK        CLOUDY     1  -6  71 E3        30.15S
THF RVR FALLS  CLOUDY     0  -6  78 E8        30.12F WCI -15
BAUDETTE       CLOUDY   -23 -30  70 CALM      30.13R
WASKISH        CLOUDY   -18 -24  76 CALM      30.12R
CROOKSTON      MOCLDY     3  -2  78 SE6       30.14S WCI  -8
STEPHEN NDAWN    N/A      1  -6  71 SE7         N/A  WCI -11
GREENBUSH NDAW   N/A     -2  -8  78 E6          N/A  WCI -14
$$
  *****  WEATHER ACROSS CENTRAL AND WEST MINNESOTA  *****

CITY           SKY/WX    TMP DP  RH WIND       PRES   REMARKS
FOSSTON          N/A     -2  -8  78 CALM      30.10R
BEMIDJI        CLOUDY    -6 -10  82 E3        30.09R
PARK RAPIDS    CLOUDY    -2  -8  76 E3        30.06R
ELBOW LAKE     NOT AVBL
WADENA         CLOUDY     0  -6  78 CALM      30.08R
DETROIT LAKES  CLOUDY     3  -2  78 SE6       30.08S WCI  -8
MOORHEAD       MIX PCPN   7   1  78 E6        30.11S WCI  -3
FERGUS FALLS   LGT SNOW   5   0  78 E7        30.13R WCI  -7
MORRIS MN      LGT SNOW   7   1  78 SE9       30.07S WCI  -7
STAPLES        CLOUDY    -2  -8  78 CALM      30.09R
$$
  *****  WEATHER ELSEWHERE ACROSS MINNESOTA  *****

CITY           SKY/WX    TMP DP  RH WIND       PRES   REMARKS
DULUTH         CLOUDY   -10 -16  74 N9        30.03F WCI -27
INTRNTL FALLS  CLOUDY   -16 -21  78 NE6       30.13R WCI -31
ELY            CLOUDY   -15 -18  84 CALM      30.07F
CLOQUET        CLOUDY   -11 -17  77 NW7       30.06S WCI -26
WHEATON        LGT SNOW   9   7  92 E12       30.10S WCI  -6
BRAINERD       CLOUDY    -3  -8  79 N3        30.10R
HIBBING        CLOUDY   -20 -23  86 CALM      30.07F
ALEXANDRIA     CLOUDY     3  -4  72 E6        30.07R WCI  -8
SAINT CLOUD    CLOUDY     1  -5  75 N3        30.11R
MINNEAPOLIS    MOCLDY     3  -5  69 N8        30.12S WCI -10
$$

  *****  WEATHER ACROSS SOUTH DAKOTA  *****

CITY           SKY/WX    TMP DP  RH WIND       PRES   REMARKS
SIOUX FALLS    LGT SNOW  18  14  84 E10       29.99F FOG     WCI   6
BROOKINGS      NOT AVBL
WATERTOWN      LGT SNOW  11   6  81 SE8       29.96F WCI  -1
HURON          CLOUDY    22  19  89 SE12      29.94F WCI  10
SISSETON         N/A      9   6  88 SE12      30.04F WCI  -6
ABERDEEN       FLURRIES  17  12  80 E9        29.96F WCI   6
MITCHELL       CLOUDY    24  19  81 SE12      29.97R WCI  13
PIERRE         CLEAR     23  21  92 CALM      29.87S
MOBRIDGE       CLEAR     21  18  88 SE8       29.83F WCI  11
RAPID CITY     CLEAR     39  23  52 NW12      29.88S
$$

  *****  SOME WEATHER IN NEARBY STATES *****

CITY           SKY/WX    TMP DP  RH WIND       PRES   REMARKS
GLASGOW MT     CLEAR     35  27  72 NW13      29.94R
GREAT FALLS MT MOCLDY    44  24  45 SW13      30.04R
CHEYENNE WY    CLEAR     40  16  37 W21       30.15R
SCOTTSBLUFF NE CLEAR     36  25  64 NW16      30.03F
OMAHA NE       CLOUDY    25  19  78 SE10      30.04F WCI  15
DES MOINES IA  LGT SNOW  16   8  71 CALM      30.10F
DAVENPORT IA   PTCLDY     5  -1  76 NW10      30.10R WCI -10
CHICAGO IL     PTCLDY     9   0  67 NW9       29.98F WCI  -4
EAU CLAIRE WI  PTCLDY    -3  -9  75 NW9       30.09R WCI -19
LA CROSSE WI   PTCLDY    -1  -9  68 N6        30.11R WCI -13
$$

  *****  SOME NATIONAL WEATHER *****

CITY           SKY/WX    TMP DP  RH WIND       PRES   REMARKS
LA GUARDIA NY  LGT SNOW  36  28  75 W7        29.61R
RALEIGH NC     CLEAR     26  14  60 W6        29.91R WCI  19
ATLANTA GA     PTCLDY    22  10  60 NW13      30.10R WCI  10
NEW ORLEANS LA CLEAR     42  22  44 N7        30.33R
OKLAHOMA CITY  CLEAR     23  20  88 S8        30.23F WCI  14
ALBUQUERQUE NM CLEAR     31  20  63 CALM      30.42R
SALT LAKE CITY FOG       28  28 100 CALM      30.47R VSB 1/4
LOS ANGELES CA PTCLDY    65  28  24 NE5       30.11S
BOISE ID       FOG       27  27 100 SE6       30.41F VSB 1/4 WCI  20
SEATTLE WA     CLOUDY    49  39  68 SE3       30.08F
$$

*** WEATHER ACROSS MANITOBA...SASKATCHEWAN AND ONTARIO ***
                ***ONTARIO***

CITY           SKY/WX    TMP DP  RH WIND       PRES   REMARKS
GERALDTON      CRYSTALS -18 -24  76 NW8       30.00R WCI -37
THUNDER BAY    PTCLDY   -17 -22  76 SW10      30.14R WCI -37
SIOUX LOOKOUT  CLEAR    -33 -38  75 VRB2      30.13R
TORONTO        SNOWSHWR  25  19  80 NW13      29.59R WCI  13
BIG TROUT LK   CLOUDY   -27 -33  75 NW7       30.15S WCI -46
PICKLE LAKE    PTCLDY   -26 -33  68 W7        30.09R WCI -44
DRYDEN         CLEAR    -22 -27  76 NE3       30.12S
KENORA         PTCLDY   -17 -22  76 E9        30.11F WCI -36
$$
                *** MANITOBA***

CITY           SKY/WX    TMP DP  RH WIND       PRES   REMARKS
BRANDON        FLURRIES   3   0  85 E14       30.04R WCI -15
DAUPHIN        FLURRIES   3   0  85 E9        30.10R WCI -11
ISLAND LAKE    PTCLDY   -33 -38  75 CALM      30.22
PILOT MOUND      N/A      1  -2  85 E14         N/A  WCI -17
THE PAS        FLURRIES  -4 -11  71 SE6       30.15R WCI -16
THOMPSON       LGT SNOW -11 -17  77 CALM      30.24S
WINNIPEG       MOCLDY    -2 -11  65 SE8       30.18S WCI -17
LYNN LAKE      FLURRIES  -8 -11  84 NE7       30.18R WCI -22
CHURCHILL      CRYSTALS -27 -33  75 W12       30.27F WCI -51
GILLAM         CLEAR    -31 -36  75 W7        30.25F WCI -50
$$
                ***SASKATCHEWAN***

CITY           SKY/WX    TMP DP  RH WIND       PRES   REMARKS
ESTEVAN        CLOUDY    16  12  86 E13       29.89R WCI   2
KINDERSLEY     CLOUDY    32  30  93 N13G20    30.02R WCI  22
LLOYDMINSTER   CLOUDY    32  28  86 NE10      30.04R WCI  24
PRINCE ALBERT  FLURRIES  12   9  85 NE7       30.04R WCI   2
REGINA         CLOUDY    23  19  86 CALM      29.92R
YORKTON        FLURRIES   9   7  92 E8        30.00R WCI  -4
N. BATTLEFORD  LGT SNOW  28  28 100 N10       30.05R WCI  19
LA RONGE       FLURRIES   7   3  85 N6        30.12R WCI  -3
SASKATOON      CLOUDY    23  23 100 N8        30.01R WCI  14
SWIFT CURRENT  CLEAR     27  27 100 W10       29.96R WCI  17
$$
NOTE: THESE ARE AUTOMATED STATIONS WITH LIMITED QUALITY CONTROL
      "FAIR" INDICATES FEW OR NO CLOUDS BELOW 12,000 FEET WITH NO
      SIGNIFICANT WEATHER AND/OR OBSTRUCTIONS TO VISIBILITY.
      SKY/WX - SKY CONDITION AND SIGNIFICANT WEATHER.
      TMP - AIR TEMPERATURE.    DP   - DEWPOINT TEMPERATURE.
      RH  - RELATIVE HUMIDITY.  PRES - PRESSURE.
      HX  - HEAT INDEX.         WCI  - WIND CHILL INDEX.
$




USA.gov is the U.S. government's official web portal to all federal, state and local government web resources and services.